Terug naar catalogus

THORAD AGENA D DEB

ActiefLEO
NORAD 4135·DEBRIS·🇺🇸 United States

Gelanceerd Sep 30, 1969 vanaf Vandenberg Space Force Base

Loading…

Volgende Passages (komende 24 uur)

TLE

VersSource: Space-Track

Epoch: Sep 14, 2026, 15:07 UTC

1 04135U 69082DP  26257.62999612  .00000177  00000-0  10012-3 0  9996
2 04135  69.9824 327.6727 0044350 134.9160 225.5573 14.24291746944171

Volg THORAD AGENA D DEB in realtime met AllMySat

Download on the App Store